Buffalo, MN

10:00 PM CST on January 23, 2017 (GMT -0600)
Buffalo

Weather History for KCFE - November, 2013

Change the Weather History Date:

Monday, November 4, 2013

  Actual Average (KMIC) Record (KMIC)
Temperature  
Mean Temperature 40 °F -  
Max Temperature 48 °F 46 °F 69 °F (2008)
Min Temperature 32 °F 30 °F 1 °F (1991)
Degree Days  
Heating Degree Days 25    
Moisture  
Dew Point 35 °F    
Average Humidity 76    
Maximum Humidity 94    
Minimum Humidity 55    
Precipitation  
Precipitation 0.38 in - - ()
Sea Level Pressure  
Sea Level Pressure 29.91 in    
Wind  
Wind Speed 10 mph (South)    
Max Wind Speed 17 mph    
Max Gust Speed 23 mph    
Visibility 9 miles    
Events Rain    
Averages and records for this station are not official NWS values.
T = Trace of Precipitation, MM = Missing Value Source: NWS Daily Summary

Daily Weather History Graph

Daily Weather History Graph

Search for Another Location

Airport or City:

Trip Planner

Search our weather history database for the weather conditions in past years. The results will help you decide how hot, cold, wet, or windy it might be!

Date:

Astronomy

Nov. 04, 2013 Rise Set
Actual Time 6:58 AM CST 4:58 PM CST
Civil Twilight 6:27 AM CST 5:29 PM CST
Nautical Twilight 5:52 AM CST 6:04 PM CST
Astronomical Twilight 5:18 AM CST 6:38 PM CST
Moon 8:12 AM CST (11/4) 6:00 PM CST (11/4)
Length of Visible Light 11h 01m
Length of Day
9h 59m
New Moon, 2% of the Moon is Illuminated
Nov 4
New Moon
Nov 9
First Quarter
Nov 17
Full
Nov 25
Last Quarter
Dec 2
New

Hourly Weather History & Observations

Time (CST) Temp. Windchill Dew Point Humidity Pressure Visibility Wind Dir Wind Speed Gust Speed Precip Events Conditions
12:16 AM 48.0 °F - 32.5 °F 55% 29.84 in 10.0 mi SSE 15.0 mph 19.6 mph N/A   Overcast
12:36 AM 48.2 °F - 32.7 °F 55% 29.84 in 10.0 mi SE 12.7 mph 21.9 mph N/A   Overcast
12:56 AM 48.2 °F - 32.7 °F 55% 29.84 in 10.0 mi SE 15.0 mph 23.0 mph N/A   Overcast
1:16 AM 47.8 °F - 32.5 °F 55% 29.84 in 10.0 mi SSE 17.3 mph 21.9 mph N/A   Mostly Cloudy
1:36 AM 47.8 °F - 32.7 °F 56% 29.84 in 10.0 mi SE 16.1 mph 21.9 mph N/A   Overcast
1:56 AM 47.8 °F - 32.9 °F 56% 29.84 in 10.0 mi SE 13.8 mph 19.6 mph N/A   Mostly Cloudy
2:16 AM 47.8 °F - 32.9 °F 56% 29.83 in 10.0 mi SSE 10.4 mph 21.9 mph N/A   Mostly Cloudy
2:36 AM 47.8 °F - 33.3 °F 57% 29.83 in 10.0 mi SSE 11.5 mph 18.4 mph N/A   Overcast
2:55 AM 47.8 °F - 33.4 °F 57% 29.82 in 10.0 mi SSE 10.4 mph 19.6 mph N/A   Mostly Cloudy
3:16 AM 47.8 °F - 33.8 °F 58% 29.82 in 10.0 mi SSE 12.7 mph 18.4 mph N/A   Mostly Cloudy
3:36 AM 47.7 °F - 33.8 °F 59% 29.81 in 10.0 mi SSE 11.5 mph 16.1 mph N/A   Scattered Clouds
3:55 AM 47.7 °F - 34.0 °F 59% 29.81 in 10.0 mi SSE 11.5 mph - N/A   Scattered Clouds
4:16 AM 47.3 °F - 34.0 °F 60% 29.82 in 10.0 mi SSE 10.4 mph 18.4 mph N/A   Mostly Cloudy
4:36 AM 47.3 °F - 34.2 °F 60% 29.82 in 10.0 mi SE 11.5 mph 17.3 mph N/A   Overcast
4:56 AM 47.3 °F - 34.3 °F 61% 29.82 in 10.0 mi SE 8.1 mph - N/A   Overcast
5:16 AM 46.9 °F - 34.7 °F 62% 29.82 in 10.0 mi SE 10.4 mph 16.1 mph N/A   Scattered Clouds
5:36 AM 46.4 °F 42.4 °F 34.7 °F 64% 29.82 in 10.0 mi SSE 8.1 mph 16.1 mph N/A   Clear
5:56 AM 46.0 °F 41.4 °F 34.7 °F 65% 29.81 in 10.0 mi SSE 9.2 mph - N/A   Clear
6:16 AM 45.5 °F 41.8 °F 34.7 °F 66% 29.81 in 10.0 mi SE 6.9 mph - N/A   Clear
6:36 AM 45.9 °F 42.3 °F 35.1 °F 66% 29.81 in 10.0 mi SE 6.9 mph - N/A   Mostly Cloudy
6:56 AM 46.2 °F 42.2 °F 35.6 °F 66% 29.81 in 10.0 mi SE 8.1 mph - N/A   Overcast
7:16 AM 45.5 °F 40.8 °F 35.2 °F 67% 29.81 in 10.0 mi SE 9.2 mph - N/A   Mostly Cloudy
7:35 AM 46.4 °F 41.5 °F 36.0 °F 67% 29.82 in 10.0 mi SE 10.4 mph 18.4 mph N/A   Overcast
7:56 AM 46.4 °F 41.5 °F 36.3 °F 68% 29.83 in 10.0 mi SSE 10.4 mph 17.3 mph N/A Rain Light Rain
8:16 AM 44.6 °F 39.7 °F 38.1 °F 78% 29.83 in 7.0 mi SE 9.2 mph - 0.01 in Rain Rain
8:35 AM 43.9 °F 37.5 °F 38.8 °F 82% 29.83 in 5.0 mi SE 12.7 mph 16.1 mph 0.08 in Rain Rain
8:56 AM 43.7 °F 38.6 °F 39.4 °F 85% 29.84 in 5.0 mi SSE 9.2 mph 16.1 mph 0.14 in Rain Rain
9:16 AM 43.5 °F 39.4 °F 39.6 °F 86% 29.83 in 5.0 mi SSE 6.9 mph - 0.05 in Rain Light Rain
9:35 AM 43.7 °F 39.7 °F 39.6 °F 85% 29.83 in 7.0 mi SE 6.9 mph - 0.08 in Rain Rain
9:56 AM 43.7 °F 40.3 °F 40.1 °F 87% 29.83 in 5.0 mi SSE 5.8 mph - 0.13 in Rain Rain
10:16 AM 44.6 °F 40.2 °F 40.1 °F 84% 29.82 in 7.0 mi SE 8.1 mph - 0.02 in Rain Light Rain
10:35 AM 44.8 °F 41.0 °F 40.3 °F 84% 29.83 in 10.0 mi SSE 6.9 mph - 0.03 in Rain Light Rain
10:56 AM 45.0 °F 40.1 °F 40.5 °F 84% 29.83 in 10.0 mi SSE 9.2 mph - 0.03 in   Drizzle
11:16 AM 44.6 °F 40.2 °F 40.8 °F 87% 29.84 in 7.0 mi South 8.1 mph 16.1 mph 0.01 in Rain Light Rain
11:35 AM 44.6 °F 39.7 °F 41.4 °F 88% 29.83 in 5.0 mi South 9.2 mph - 0.05 in Rain Rain
11:56 AM 45.1 °F 40.3 °F 41.9 °F 88% 29.83 in 5.0 mi South 9.2 mph 19.6 mph 0.08 in Rain Light Rain
12:16 PM 45.0 °F 40.1 °F 41.7 °F 88% 29.84 in 10.0 mi SSW 9.2 mph 17.3 mph N/A   Light Drizzle
12:35 PM 45.5 °F 40.3 °F 41.4 °F 85% 29.84 in 10.0 mi WSW 10.4 mph - N/A   Overcast
12:56 PM 44.6 °F 38.8 °F 39.2 °F 81% 29.85 in 10.0 mi WSW 11.5 mph 17.3 mph N/A   Overcast
1:16 PM 45.5 °F 38.9 °F 39.9 °F 81% 29.85 in 10.0 mi West 15.0 mph - N/A   Overcast
1:36 PM 45.5 °F 39.2 °F 38.8 °F 78% 29.87 in 10.0 mi West 13.8 mph 19.6 mph N/A   Overcast
1:56 PM 45.5 °F 39.6 °F 37.4 °F 73% 29.87 in 10.0 mi West 12.7 mph - N/A   Overcast
2:16 PM 46.4 °F 41.9 °F 38.1 °F 73% 29.88 in 10.0 mi West 9.2 mph - N/A   Overcast
2:36 PM 46.0 °F 39.9 °F 37.4 °F 72% 29.90 in 10.0 mi West 13.8 mph 19.6 mph N/A   Overcast
2:56 PM 46.6 °F - 37.8 °F 71% 29.92 in 10.0 mi West 12.7 mph - N/A   Mostly Cloudy
3:16 PM 45.1 °F 40.8 °F 37.6 °F 75% 29.93 in 10.0 mi WSW 8.1 mph - N/A   Overcast
3:35 PM 44.8 °F 39.0 °F 37.4 °F 75% 29.94 in 10.0 mi West 11.5 mph 16.1 mph N/A   Mostly Cloudy
3:56 PM 46.2 °F 41.2 °F 37.6 °F 72% 29.95 in 10.0 mi WSW 10.4 mph - N/A   Overcast
4:16 PM 44.6 °F 39.2 °F 35.1 °F 69% 29.96 in 10.0 mi WSW 10.4 mph 16.1 mph N/A   Overcast
4:36 PM 43.2 °F 38.4 °F 33.8 °F 70% 29.97 in 10.0 mi WSW 8.1 mph - N/A   Scattered Clouds
4:56 PM 42.1 °F 38.4 °F 34.0 °F 73% 29.99 in 10.0 mi WSW 5.8 mph - N/A   Clear
5:16 PM 41.4 °F 38.4 °F 33.8 °F 74% 30.00 in 10.0 mi WSW 4.6 mph - N/A   Clear
5:35 PM 40.1 °F 38.0 °F 33.3 °F 77% 30.00 in 10.0 mi SW 3.5 mph - N/A   Clear
5:56 PM 40.1 °F - 33.3 °F 77% 30.00 in 10.0 mi Calm Calm - N/A   Clear
6:16 PM 37.9 °F - 32.9 °F 82% 30.01 in 10.0 mi Calm Calm - N/A   Clear
6:36 PM 37.4 °F - 33.1 °F 84% 30.02 in 10.0 mi Calm Calm - N/A   Clear
6:56 PM 34.5 °F - 31.6 °F 89% 30.03 in 10.0 mi Calm Calm - N/A   Clear
7:16 PM 34.0 °F - 31.8 °F 92% 30.04 in 10.0 mi Calm Calm - N/A   Clear
7:36 PM 33.3 °F - 31.3 °F 92% 30.04 in 10.0 mi Calm Calm - N/A   Clear
7:56 PM 33.4 °F - 31.8 °F 94% 30.06 in 10.0 mi Calm Calm - N/A   Clear
8:16 PM 32.9 °F - 31.3 °F 94% 30.06 in 10.0 mi Calm Calm - N/A   Clear
8:36 PM 32.5 °F - 30.9 °F 94% 30.07 in 10.0 mi Calm Calm - N/A   Clear
8:56 PM 32.9 °F - 31.5 °F 94% 30.09 in 10.0 mi Calm Calm - N/A   Clear
9:16 PM 33.3 °F - 31.6 °F 94% 30.10 in 10.0 mi Calm Calm - N/A   Clear
9:36 PM 33.8 °F - 31.6 °F 92% 30.11 in 10.0 mi Calm Calm - N/A   Clear
9:56 PM 32.9 °F - 30.4 °F 90% 30.11 in 10.0 mi Calm Calm - N/A   Clear
10:16 PM 33.1 °F - 31.1 °F 92% 30.11 in 10.0 mi Calm Calm - N/A   Clear
10:36 PM 32.4 °F - 30.4 °F 92% 30.12 in 10.0 mi Calm Calm - N/A   Clear
10:56 PM 32.0 °F - 30.2 °F 93% 30.13 in 10.0 mi Calm Calm - N/A   Clear
11:15 PM 32.0 °F - 30.2 °F 93% 30.14 in 10.0 mi Calm Calm - N/A   Clear
11:36 PM 32.0 °F - 29.8 °F 92% 30.14 in 10.0 mi Calm Calm - N/A   Clear
11:56 PM 32.0 °F - 30.0 °F 92% 30.15 in 10.0 mi Calm Calm - N/A   Clear